星链-3926 (STARLINK-3926 )

导读

STARLINK-3926是美国太空探索技术公司Starlink星链星座中的一员,于2022年5月13日发射入轨。星链星座旨在搭建全球卫星互联网,为全球提供高速低延迟网络服务,该卫星是星座组网阶段的产物,用于拓展星座覆盖能力,目前已正常在轨运行,参与全球卫星互联网络服务。

Basic Information
目录编号:
52543
目录名称:
STARLINK-3926
国际标识:
2022-051L
轨道中心:
EARTH
卫星名称:
星链-3926
卫星全名:
星链-3926 (STARLINK-3926 )
卫星状态:
在轨 (已飞行1575 天)
发射日期:
2022-05-13 UTC
国别 :
美国 (US)
星等 :
--
Orbit Information
数据来源 国际轨道数据
星历时间: 2026-09-04T04:03:34+0800
9小时前
查看轨道信息
半长轴: 6840.869km
偏心率: 0.0001045
轨道倾角: 53.163°
近地点辐角 94.056°
升交点赤经 39.977°
平近点角 266.057°
近地点: 462.017km
远地点: 463.447km
周期: 93.848分钟
每日圈数: 15.343904
Detailed Information
固有亮度:
5
最大亮度:
2.5
卫星平台:
Starlink v1.5
覆盖范围:
全球
运营商:
太空探索技术公司
运营商所在国:
美国
制造商(研发单位):
太空探索技术公司
制造商所在国:
美国
使用方式:
暂无
Satellite Introduction
星链(Starlink)计划是由太空探索技术公司(SpaceX)提出的一个巨型低轨卫星互联网星座项目,计划在2019年至2024年间在太空搭建由约1.2万颗卫星组成的“星链”网络,其中1584颗将部署在地球上空550千米处的近地轨道,并从2020年开始工作。该卫星仍在工作。
2D Orbit Map
3D Orbit Map
Orbit Altitude Analysis Chart
Orbit Inclination Analysis Chart
Orbit Comprehensive Analysis Chart
View Comprehensive Chart
Conjunction Data List
Event ID Objects TCA Miss Dist (km) Collision Risk Probability Collision Risk Index (CRI) Action
CDM_260905-082505-254306-202321
2026-09-05T
08:25:49+0000
0.607 km
远距离
3.748378E-5 中风险 0.66
CDM_260903-015402-579505-254324
2026-09-03T
01:54:36+0000
1.185 km
极远距离
1.313161E-5 中风险 0.57
CDM_260905-025705-254306-202321
2026-09-05T
02:57:32+0000
0.969 km
远距离
8.04885E-6 低风险 0.53
CDM_260905-143305-254306-034621
2026-09-05T
14:33:18+0000
1.325 km
极远距离
6.195175E-6 低风险 0.51
CDM_260905-043105-254306-202321
2026-09-05T
04:31:20+0000
1.383 km
极远距离
2.459009E-6 低风险 0.43
CDM_260905-125905-254306-034621
2026-09-05T
12:59:31+0000
1.932 km
极远距离
1.990197E-6 低风险 0.41
CDM_260903-151105-254306-404221
2026-09-03T
15:11:01+0000
1.628 km
极远距离
1.804713E-6 低风险 0.4
CDM_260903-112305-254306-281122
2026-09-03T
11:23:42+0000
2.356 km
极远距离
1.738036E-6 低风险 0.4
CDM_260903-151805-254306-281121
2026-09-03T
15:18:14+0000
2.763 km
极远距离
1.325935E-6 低风险 0.37
CDM_260905-095905-254306-202321
2026-09-05T
09:59:36+0000
2.371 km
极远距离
6.512952E-7 极低风险 0.31